Temperature
21 20 20 20 20 20 21 21 20 20 20 20 20 20 20 19 19 19 19 19 19 19 18 18 18 18 18 19 19 19 19 19 18 18 18 17 17 17 17 17 17 17 17
23 20 20 20 20 20 20 21 20 20 20 20 20 20 20 20 19 19 19 19 19 19 19 19 19 19 19 19 19 19 19 19 19 18 18 17 17 18 18 17 17 17 17
22 21 20 20 20 20 20 20 20 20 21 21 20 20 20 20 20 20 20 19 19 19 19 19 19 19 19 19 19 19 20 19 19 18 18 18 17 18 18 18 18 18 17
22 21 20 20 20 20 20 20 20 20 20 20 20 20 20 20 20 20 20 20 20 20 20 20 20 20 20 20 20 20 20 19 19 19 18 18 18 18 18 18 18 18 18
22 21 21 20 20 20 21 21 21 21 21 21 20 20 20 20 20 20 20 20 20 20 20 20 20 20 20 20 19 19 19 19 19 19 19 18 18 18 18 18 18 18 18
22 21 21 21 20 20 21 21 21 21 21 21 21 20 20 20 20 20 20 19 19 20 20 20 19 19 19 19 19 19 19 18 18 18 18 18 18 18 18 18 18 18 18
23 22 21 21 21 21 21 21 21 21 21 21 21 20 20 20 20 20 19 19 19 20 20 20 19 19 19 19 19 19 19 18 18 18 18 18 18 18 18 18 18 18 18
23 22 21 21 21 21 21 21 21 21 21 21 20 20 20 20 20 20 20 20 20 20 20 20 20 19 19 19 19 19 19 18 18 18 18 18 18 18 18 18 18 18 18
22 22 21 21 20 20 20 20 20 20 20 20 20 20 20 20 20 20 20 20 20 20 20 19 19 19 19 19 19 19 19 18 18 18 18 18 18 18 17 17 17 17 17
22 21 21 20 20 20 20 20 20 20 20 20 20 20 20 20 20 20 20 19 19 19 19 19 19 19 19 19 19 19 18 18 18 18 18 18 18 18 17 17 17 17 17
21 20 20 20 20 20 20 19 19 19 19 20 20 20 19 19 20 19 19 19 19 19 19 19 19 19 19 19 18 18 18 18 18 18 18 18 18 18 18 17 17 17 17
20 20 20 19 19 19 19 19 19 19 19 19 19 19 19 19 19 19 19 19 19 19 19 19 18 18 18 18 18 18 18 18 18 18 18 18 18 18 18 18 17 17 17
20 20 19 19 19 19 18 18 19 19 19 19 19 19 19 19 19 19 19 19 19 19 18 18 18 18 18 18 18 18 18 18 18 18 18 18 18 18 18 18 18 17 17
19 19 19 19 19 19 19 19 19 19 19 19 19 19 18 19 19 19 19 19 18 18 18 18 18 18 18 18 18 18 18 18 18 18 18 18 18 18 18 18 18 18 17
19 19 19 19 19 19 19 19 20 20 20 19 19 19 18 18 18 18 18 18 18 18 18 18 18 18 18 18 17 17 18 18 18 18 18 18 18 18 18 18 18 18 17
19 19 19 19 19 19 19 19 19 19 19 19 19 19 18 18 18 18 18 18 18 18 18 17 17 17 17 17 17 17 18 18 18 18 18 18 18 18 18 17 18 17 17
18 18 18 18 18 18 18 18 18 18 18 19 19 18 18 18 18 18 18 17 17 17 17 17 17 17 17 17 17 17 17 17 17 17 17 17 17 17 17 18 17 17 17
17 17 18 18 17 17 17 17 17 18 18 18 18 18 18 18 18 17 17 17 17 17 17 17 17 17 17 17 17 17 17 17 17 17 17 17 17 17 17 17 17 17 17
17 17 17 17 17 17 17 16 16 17 17 17 17 18 18 17 17 17 18 17 17 17 17 17 17 16 16 16 16 16 16 17 17 17 17 17 17 17 17 17 17 17 17
16 17 17 17 16 16 16 16 16 16 16 16 17 17 17 17 17 17 17 17 17 17 17 16 16 16 16 16 16 16 16 16 16 16 17 17 17 17 17 17 17 17 17
16 16 16 16 16 16 16 16 15 15 16 16 16 16 17 17 17 17 17 17 17 17 16 16 16 16 16 16 16 16 16 16 16 16 17 17 17 17 17 17 17 17 17
16 16 16 16 16 16 16 16 15 15 15 16 16 16 16 17 17 17 17 17 17 17 17 16 16 16 16 15 15 16 16 16 16 16 16 16 16 16 16 17 17 17 17
16 16 16 16 16 16 16 16 16 16 16 16 16 16 17 17 17 17 17 17 17 17 17 17 16 16 15 15 15 15 16 16 16 16 16 16 16 16 16 16 17 17 17
16 16 16 16 16 16 16 16 16 16 16 16 16 16 16 17 17 17 17 17 17 17 17 17 16 16 16 15 15 15 15 15 15 15 15 15 15 15 16 16 16 17 17
16 16 16 16 16 15 15 15 15 15 15 15 15 15 16 16 16 16 17 17 16 16 16 16 16 16 16 16 15 15 15 15 15 14 15 15 16 16 16 16 16 17 17
16 16 16 16 15 15 15 14 14 14 14 14 14 14 15 15 15 15 15 16 16 16 16 16 16 16 16 16 16 15 15 15 15 14 14 14 15 16 16 16 16 16 17
Wind_Speed
9 11 21 20 18 18 17 16 16 16 17 17 18 18 18 18 17 15 15 14 13 12 10 9 9 9 10 10 10 11 13 14 14 14 14 15 15 15 15 15 15 14 16
14 16 22 21 20 18 17 17 16 16 17 17 17 17 17 17 17 16 15 14 13 12 11 10 10 9 9 9 10 11 12 13 13 14 14 14 14 14 14 14 14 13 15
15 16 20 21 20 19 18 17 16 16 16 16 16 16 16 16 16 16 15 14 13 12 11 11 10 10 10 9 10 10 11 12 12 13 12 9 11 13 14 14 14 14 14
14 15 18 21 20 19 18 17 16 16 15 15 15 15 15 15 15 15 15 14 13 12 12 11 11 11 10 10 9 10 10 10 11 11 8 7 7 12 13 14 14 15 14
12 14 18 22 21 20 18 17 16 15 15 15 14 14 14 14 15 15 14 13 12 11 11 11 11 11 10 10 9 9 9 9 10 8 7 6 4 10 13 14 15 15 15
13 13 17 22 21 20 19 18 17 16 15 15 14 14 14 14 14 14 14 13 12 11 10 10 10 10 10 10 9 9 9 9 8 5 6 6 5 9 12 14 15 15 15
13 12 16 22 22 21 20 19 17 16 15 15 14 14 14 13 13 12 12 12 12 11 11 10 10 10 10 10 10 10 9 10 6 4 5 6 7 10 13 15 15 16 15
14 10 13 21 21 21 20 19 18 17 16 15 15 14 14 14 13 13 12 12 12 12 12 12 11 11 11 11 11 11 11 10 8 7 7 7 9 12 15 16 17 17 17
9 8 7 13 17 19 19 18 17 17 16 16 15 15 15 14 14 14 14 14 14 14 14 13 13 13 13 13 12 12 12 12 9 7 7 8 9 12 15 17 18 19 19
8 7 5 6 9 11 13 16 16 16 16 16 16 16 16 15 15 15 15 15 15 15 15 15 15 15 14 14 14 14 13 13 11 9 8 9 11 11 14 17 19 20 20
6 4 4 4 4 5 6 9 12 14 15 16 16 17 16 14 14 14 15 16 17 16 16 16 16 16 16 16 16 16 14 11 10 9 10 12 13 14 14 17 20 21 21
6 5 3 4 3 3 3 3 5 7 9 12 11 12 13 12 12 14 13 18 18 18 18 19 19 18 17 14 15 16 12 12 11 11 11 14 15 15 15 16 20 22 23
6 5 4 4 3 2 1 0 2 4 6 8 10 11 10 9 10 12 10 13 15 16 15 16 17 15 14 13 12 12 12 11 11 11 13 16 16 16 16 16 18 22 24
9 7 5 4 3 1 1 2 3 4 5 6 10 12 10 6 6 8 8 10 11 11 10 11 10 12 13 14 13 11 12 11 11 11 13 17 18 17 16 16 17 20 23
9 7 5 4 3 2 3 4 5 5 6 7 9 11 13 8 9 7 7 9 10 11 9 8 5 8 8 10 11 11 10 11 12 12 12 16 18 17 17 17 17 18 20
7 5 4 3 3 3 5 6 6 5 5 7 7 9 13 11 8 8 8 7 8 10 10 8 7 7 7 6 8 8 9 10 10 11 12 13 16 16 16 17 17 17 17
3 1 1 2 4 4 6 9 7 6 7 6 6 9 11 12 10 8 8 8 7 9 8 6 6 4 5 5 6 7 6 8 8 10 11 11 11 14 16 17 18 18 17
4 4 4 4 4 5 6 7 7 6 6 5 6 7 9 11 11 7 7 7 6 6 5 4 4 3 4 4 4 4 5 5 7 8 9 10 11 11 13 16 18 19 19
6 5 6 7 7 7 7 6 7 5 5 3 4 4 7 10 12 8 7 6 5 4 4 4 3 3 3 4 4 4 4 5 6 6 7 9 10 11 11 13 17 18 19
7 7 7 7 9 8 6 5 5 3 1 1 2 4 8 9 11 7 6 6 5 4 4 3 3 2 2 3 2 3 3 4 5 6 7 7 8 10 11 12 12 13 17
8 9 9 8 9 8 5 5 4 3 2 2 3 5 7 8 8 7 6 6 6 5 5 5 3 3 3 2 1 2 2 3 4 5 5 5 5 6 8 9 10 10 11
8 8 8 8 8 8 5 3 2 2 2 2 3 4 4 5 7 6 7 6 7 5 5 5 4 3 2 3 3 1 2 2 1 1 1 2 2 2 3 5 7 9 10
6 6 6 7 7 7 7 4 3 3 2 3 5 5 5 5 4 4 6 6 6 7 7 7 6 6 4 3 3 3 3 3 2 2 1 1 1 2 3 4 6 8 10
5 5 4 5 5 5 5 5 6 4 3 4 4 4 6 6 5 2 3 4 6 6 6 7 7 5 5 4 3 2 2 3 2 1 2 2 3 3 4 5 6 7 9
6 5 5 4 4 4 3 4 4 3 1 2 3 6 7 7 7 6 4 3 4 5 7 7 7 7 6 5 4 3 2 1 2 2 3 3 3 3 4 5 6 6 7
7 7 6 5 5 4 3 1 1 1 1 2 3 4 5 4 5 6 6 5 4 4 6 7 8 9 8 6 5 4 4 3 3 4 5 4 4 4 4 4 4 4 5
Wind_Direction
165 161 168 162 155 150 146 145 143 140 136 135 135 137 140 144 147 151 155 157 157 156 153 147 140 135 134 133 131 128 127 129 131 133 133 130 128 124 121 119 119 119 121
152 159 167 162 157 153 150 149 148 145 141 140 141 144 147 150 153 156 159 161 162 162 159 156 153 148 145 144 142 139 138 138 140 142 141 138 136 133 129 127 126 127 125
145 156 165 162 159 156 153 153 152 149 146 145 147 150 154 158 160 161 163 165 167 167 165 163 162 159 157 156 153 151 148 147 149 149 141 135 140 143 141 140 137 132 130
144 153 162 164 161 159 157 157 156 153 151 151 153 157 161 165 166 167 168 169 170 170 169 169 169 167 166 165 163 161 158 156 155 150 138 142 150 156 154 152 148 144 140
143 152 164 166 164 162 161 161 161 159 158 159 162 166 168 170 173 174 175 176 176 176 176 177 177 175 173 173 173 172 171 168 165 154 156 164 164 164 164 162 160 156 152
146 152 167 168 168 166 166 167 167 166 166 168 171 175 177 179 180 181 182 184 186 186 188 189 188 186 184 182 182 184 186 188 179 157 172 186 192 182 177 174 172 169 164
149 154 169 170 171 171 172 173 173 173 174 176 179 183 185 187 189 190 190 192 195 197 198 199 198 197 196 195 195 196 199 205 192 192 202 210 215 210 197 189 183 180 177
151 152 168 172 174 175 177 179 179 180 182 184 188 191 193 195 197 199 200 202 204 205 207 207 206 205 206 207 207 207 209 214 214 217 226 229 230 225 215 204 195 189 186
140 141 157 170 176 179 182 184 186 188 190 193 196 199 202 204 205 207 209 211 213 214 215 216 216 216 216 218 218 219 219 222 221 216 228 230 235 231 223 215 206 198 193
133 138 138 150 164 175 185 192 195 198 200 202 205 207 210 212 214 216 217 220 223 225 226 227 228 228 227 227 228 229 229 231 230 226 232 237 239 235 228 221 213 207 201
136 125 117 114 125 150 178 201 207 212 214 214 215 217 217 219 221 224 226 227 232 234 235 235 236 236 236 236 236 236 237 235 233 234 235 239 240 238 234 226 217 212 209
140 138 116 111 95 96 174 214 230 231 231 226 223 225 225 219 222 229 234 236 237 239 241 242 240 241 241 238 240 241 238 234 234 238 239 237 237 237 237 233 221 215 213
116 122 109 106 99 118 156 242 252 249 244 238 232 228 230 227 226 233 233 242 247 247 247 247 245 239 235 231 232 233 235 237 238 241 243 242 238 236 238 237 230 221 217
108 110 111 116 128 153 208 236 230 232 233 233 233 229 227 231 229 231 234 234 238 242 246 245 241 234 232 230 228 229 231 232 235 238 242 246 244 238 240 241 238 229 224
112 115 126 139 150 199 236 254 243 231 231 232 229 228 227 230 235 230 231 234 235 236 241 243 237 234 231 228 227 228 230 231 234 235 241 249 251 245 241 243 243 238 233
112 133 150 162 192 217 240 255 255 249 242 240 234 231 231 232 234 235 233 232 234 233 234 235 233 230 229 227 228 226 230 233 236 240 243 250 255 253 251 250 249 246 240
77 83 129 233 243 251 253 250 254 247 236 229 228 233 239 239 240 237 236 239 237 232 229 229 228 222 226 226 231 232 232 235 235 241 244 247 255 259 259 258 256 253 246
9 346 332 323 304 286 273 265 260 243 227 226 225 229 242 246 246 240 235 235 230 222 212 210 205 205 217 218 225 232 232 235 238 240 243 247 250 254 256 256 255 253 247
2 351 342 341 331 317 303 294 282 253 220 214 229 238 249 248 242 234 229 226 208 198 199 201 186 185 197 207 221 235 238 238 244 245 244 247 246 246 248 253 254 253 250
10 8 4 354 351 335 319 314 317 303 310 281 242 238 245 245 236 217 218 205 185 181 186 185 174 176 187 194 226 248 254 251 251 249 251 252 251 249 249 250 253 255 252
19 17 15 12 359 354 343 337 337 345 353 327 281 246 238 241 233 208 206 190 181 185 190 182 168 178 190 164 159 290 295 268 258 251 247 248 252 253 252 251 249 249 253
12 9 7 7 3 360 350 332 331 328 329 319 314 306 278 249 234 217 205 195 187 183 184 184 173 169 182 173 164 166 307 329 315 292 268 230 245 266 269 264 254 249 248
2 356 359 358 1 359 357 0 5 17 2 5 350 345 332 309 262 226 212 202 194 188 191 192 185 175 184 195 192 164 174 228 294 317 317 305 301 295 295 291 276 263 254
322 322 334 344 351 353 5 35 47 46 21 345 332 338 339 346 344 319 260 226 210 203 200 198 193 183 169 183 201 207 188 171 183 304 317 320 316 293 296 294 291 279 265
291 295 301 314 324 332 6 41 57 52 2 319 333 348 354 354 358 1 342 293 245 226 219 207 192 191 186 180 179 174 184 192 190 202 267 306 312 290 285 286 289 287 280
279 277 277 284 289 297 314 340 112 130 305 331 335 340 342 339 344 356 354 338 300 260 237 224 209 199 197 189 185 181 176 176 188 195 225 258 286 291 295 289 291 299 299
Height
1493 1499 1503 1508 1511 1514 1517 1519 1522 1525 1527 1529 1530 1532 1534 1535 1537 1538 1539 1540 1541 1542 1543 1544 1545 1546 1546 1547 1547 1547 1547 1548 1548 1548 1548 1549 1549 1550 1550 1551 1551 1552 1553
1492 1498 1503 1508 1512 1515 1518 1520 1523 1525 1528 1529 1531 1532 1534 1536 1537 1538 1540 1541 1542 1543 1544 1545 1546 1547 1547 1548 1548 1548 1549 1549 1549 1550 1550 1551 1551 1552 1552 1553 1553 1554 1555
1494 1499 1504 1509 1513 1516 1519 1521 1523 1526 1528 1530 1532 1533 1535 1536 1538 1539 1540 1542 1543 1544 1545 1546 1547 1547 1548 1549 1549 1550 1550 1550 1551 1551 1552 1553 1553 1554 1554 1555 1555 1556 1557
1497 1501 1505 1510 1514 1517 1520 1522 1524 1527 1529 1530 1532 1533 1535 1537 1538 1540 1541 1542 1544 1545 1546 1547 1547 1548 1549 1549 1550 1551 1551 1552 1552 1553 1553 1554 1555 1555 1556 1557 1557 1558 1559
1498 1502 1506 1511 1514 1518 1520 1523 1525 1527 1529 1530 1532 1533 1535 1536 1538 1540 1541 1542 1544 1545 1546 1547 1548 1548 1549 1550 1551 1552 1552 1553 1553 1554 1555 1555 1556 1556 1557 1558 1559 1559 1560
1499 1503 1507 1511 1515 1518 1521 1523 1525 1527 1529 1530 1532 1533 1534 1536 1537 1539 1541 1542 1543 1544 1545 1546 1547 1548 1549 1550 1551 1552 1553 1553 1554 1555 1555 1556 1556 1557 1558 1559 1560 1560 1561
1499 1504 1508 1511 1515 1518 1520 1523 1525 1527 1529 1530 1532 1533 1534 1536 1537 1539 1540 1542 1543 1544 1545 1546 1547 1548 1549 1550 1551 1552 1553 1553 1554 1555 1555 1556 1556 1557 1558 1559 1560 1561 1562
1500 1504 1508 1512 1515 1518 1521 1523 1525 1527 1528 1530 1532 1533 1534 1536 1537 1538 1540 1541 1542 1543 1545 1546 1547 1548 1549 1550 1551 1551 1552 1553 1553 1554 1555 1555 1556 1556 1557 1558 1559 1560 1562
1502 1505 1509 1513 1516 1519 1521 1523 1525 1527 1529 1530 1532 1533 1535 1536 1537 1538 1539 1540 1541 1542 1543 1544 1545 1547 1548 1549 1550 1550 1551 1551 1552 1553 1553 1554 1555 1555 1556 1557 1558 1559 1560
1503 1506 1510 1513 1516 1519 1522 1524 1526 1527 1529 1530 1531 1533 1534 1535 1536 1537 1538 1539 1540 1541 1541 1542 1543 1544 1545 1546 1547 1548 1549 1549 1550 1550 1551 1552 1553 1553 1554 1555 1556 1557 1559
1504 1508 1511 1514 1517 1519 1522 1524 1526 1527 1528 1529 1530 1531 1532 1533 1534 1535 1536 1537 1537 1538 1539 1540 1541 1542 1542 1543 1544 1545 1546 1546 1547 1548 1548 1549 1550 1551 1552 1553 1554 1555 1556
1504 1508 1511 1514 1517 1519 1521 1523 1524 1525 1526 1527 1528 1529 1530 1530 1531 1532 1533 1534 1535 1536 1536 1537 1538 1539 1539 1540 1541 1542 1542 1543 1544 1545 1545 1546 1547 1547 1548 1550 1551 1552 1553
1506 1509 1512 1515 1518 1520 1521 1521 1522 1522 1523 1523 1524 1526 1527 1528 1529 1529 1530 1531 1532 1533 1533 1534 1535 1535 1536 1536 1537 1538 1539 1540 1540 1541 1542 1543 1543 1544 1545 1546 1547 1549 1550
1508 1511 1514 1517 1518 1518 1519 1519 1518 1518 1519 1519 1520 1522 1523 1524 1525 1526 1527 1527 1528 1529 1530 1531 1531 1531 1532 1533 1533 1534 1535 1535 1536 1537 1538 1539 1540 1540 1541 1542 1544 1545 1547
1509 1512 1514 1515 1516 1516 1516 1514 1513 1513 1513 1514 1514 1516 1518 1520 1521 1522 1523 1524 1524 1525 1526 1527 1527 1527 1528 1528 1529 1530 1531 1531 1532 1533 1534 1535 1536 1536 1537 1538 1540 1541 1542
1509 1510 1511 1512 1512 1510 1509 1509 1507 1507 1507 1508 1509 1511 1513 1515 1516 1518 1519 1520 1520 1521 1521 1522 1522 1523 1523 1524 1524 1525 1526 1527 1528 1529 1529 1530 1531 1532 1533 1534 1535 1537 1538
1507 1508 1507 1508 1507 1505 1503 1502 1500 1498 1499 1502 1504 1506 1508 1509 1511 1513 1514 1514 1516 1516 1516 1516 1517 1517 1518 1518 1519 1520 1521 1522 1523 1523 1524 1525 1526 1527 1528 1530 1531 1532 1534
1506 1506 1505 1503 1501 1500 1497 1495 1492 1490 1491 1494 1497 1500 1503 1505 1507 1509 1509 1510 1511 1511 1511 1511 1511 1512 1512 1513 1514 1515 1515 1516 1517 1518 1519 1519 1520 1521 1523 1524 1525 1527 1528
1504 1503 1502 1500 1498 1497 1494 1490 1486 1483 1484 1488 1491 1495 1498 1501 1503 1504 1505 1506 1506 1507 1507 1507 1507 1507 1508 1509 1509 1510 1510 1511 1512 1512 1513 1514 1515 1516 1517 1518 1520 1521 1523
1505 1503 1501 1500 1498 1495 1492 1488 1482 1479 1480 1483 1486 1490 1495 1498 1500 1501 1502 1502 1503 1503 1503 1503 1503 1504 1504 1505 1505 1506 1506 1506 1507 1507 1508 1509 1510 1511 1512 1513 1514 1516 1517
1506 1504 1502 1500 1498 1495 1492 1489 1484 1481 1481 1483 1485 1489 1493 1495 1497 1498 1499 1499 1499 1499 1500 1500 1500 1500 1500 1501 1502 1502 1502 1501 1501 1502 1503 1504 1505 1506 1507 1508 1509 1511 1512
1507 1505 1504 1501 1498 1496 1493 1491 1488 1487 1486 1485 1487 1489 1491 1493 1494 1495 1496 1496 1496 1496 1496 1496 1496 1496 1497 1497 1498 1498 1498 1498 1497 1498 1498 1499 1500 1501 1503 1504 1504 1505 1507
1509 1507 1505 1502 1500 1497 1494 1492 1490 1489 1488 1488 1488 1488 1488 1489 1490 1491 1491 1492 1493 1493 1493 1493 1493 1493 1493 1494 1494 1495 1495 1494 1495 1496 1496 1496 1497 1498 1498 1499 1500 1501 1502
1511 1508 1506 1503 1500 1497 1494 1492 1490 1488 1487 1486 1485 1484 1484 1484 1484 1485 1486 1488 1489 1489 1489 1489 1489 1489 1490 1490 1491 1491 1492 1492 1493 1493 1494 1494 1494 1494 1494 1495 1496 1496 1497
1511 1509 1506 1503 1500 1497 1494 1491 1489 1487 1486 1484 1483 1481 1480 1480 1479 1479 1480 1481 1483 1484 1485 1486 1486 1486 1486 1486 1487 1488 1488 1489 1489 1490 1490 1491 1491 1490 1490 1490 1490 1492 1493
1511 1508 1505 1502 1499 1496 1493 1490 1488 1486 1484 1482 1480 1479 1477 1476 1475 1474 1474 1474 1476 1477 1478 1480 1481 1482 1482 1482 1483 1484 1485 1485 1486 1486 1487 1486 1486 1486 1486 1486 1486 1487 1488